Dodge City, KS

1:25 AM CDT on April 24, 2017 (GMT -0500)
Dodge City Regional

Weather History for KDDC - November, 2011

Change the Weather History Date:

Saturday, November 26, 2011

  Actual Average Record
Temperature  
Mean Temperature 40 °F -  
Max Temperature 48 °F 48 °F 80 °F (1910)
Min Temperature 30 °F 24 °F 0 °F (1887)
Degree Days  
Heating Degree Days 25    
Moisture  
Dew Point 25 °F    
Average Humidity 58    
Maximum Humidity 82    
Minimum Humidity 31    
Precipitation  
Precipitation 0.03 in - - ()
Sea Level Pressure  
Sea Level Pressure 30.18 in    
Wind  
Wind Speed 24 mph (NNW)    
Max Wind Speed 44 mph    
Max Gust Speed 53 mph    
Visibility 10 miles    
Events Rain , Snow    
Averages and records for this station are not official NWS values.
T = Trace of Precipitation, MM = Missing Value Source: NWS Daily Summary

Daily Weather History Graph

Daily Weather History Graph

Search for Another Location

Airport or City:

Trip Planner

Search our weather history database for the weather conditions in past years. The results will help you decide how hot, cold, wet, or windy it might be!

Date:

Astronomy

Nov. 26, 2011 Rise Set
Actual Time 7:31 AM CST 5:22 PM CST
Civil Twilight 7:02 AM CST 5:51 PM CST
Nautical Twilight 6:30 AM CST 6:23 PM CST
Astronomical Twilight 5:58 AM CST 6:55 PM CST
Moon 9:02 AM CST (11/26) 6:56 PM CST (11/26)
Length of Visible Light 10h 48m
Length of Day
9h 51m
Waxing Crescent, 3% of the Moon is Illuminated
Nov 26
Waxing Crescent
Dec 2
First Quarter
Dec 10
Full
Dec 17
Last Quarter
Dec 24
New

Hourly Weather History & Observations

Time (CST) Temp. Windchill Dew Point Humidity Pressure Visibility Wind Dir Wind Speed Gust Speed Precip Events Conditions
12:52 AM 48.0 °F - 42.1 °F 80% 29.81 in 10.0 mi NE 12.7 mph 26.5 mph 0.03 in   Overcast
1:52 AM 46.9 °F - 35.1 °F 63% 29.81 in 10.0 mi NNW 10.4 mph - N/A   Overcast
2:52 AM 46.0 °F 38.8 °F 32.0 °F 58% 29.83 in 10.0 mi NNW 18.4 mph 25.3 mph N/A   Overcast
3:52 AM 46.0 °F 38.0 °F 32.0 °F 58% 29.87 in 10.0 mi NNW 21.9 mph 35.7 mph N/A   Overcast
4:52 AM 43.0 °F 31.4 °F 32.0 °F 65% 29.95 in 10.0 mi North 38.0 mph 48.3 mph N/A   Overcast
5:52 AM 42.1 °F 30.6 °F 30.9 °F 65% 30.03 in 10.0 mi North 34.5 mph 46.0 mph N/A   Overcast
6:52 AM 39.0 °F 26.4 °F 30.9 °F 73% 30.08 in 10.0 mi NNW 34.5 mph 49.5 mph 0.00 in Rain Light Rain
7:52 AM 37.0 °F 22.8 °F 30.0 °F 76% 30.14 in 9.0 mi North 40.3 mph 50.6 mph 0.00 in Rain Light Rain
8:25 AM 35.6 °F 22.7 °F 30.2 °F 81% 30.16 in 4.0 mi North 28.8 mph 52.9 mph 0.00 in Snow Light Snow
8:52 AM 36.0 °F 23.5 °F 30.9 °F 82% 30.19 in 10.0 mi NNW 27.6 mph 47.2 mph 0.00 in Rain Light Rain
9:13 AM 35.6 °F 24.2 °F 30.2 °F 81% 30.19 in 10.0 mi NNW 21.9 mph 39.1 mph 0.00 in   Overcast
9:52 AM 37.9 °F 25.7 °F 26.1 °F 62% 30.20 in 10.0 mi NNW 29.9 mph 49.5 mph 0.00 in   Overcast
10:52 AM 39.0 °F 26.4 °F 25.0 °F 57% 30.22 in 10.0 mi North 34.5 mph 47.2 mph N/A   Overcast
11:52 AM 42.1 °F 31.1 °F 27.0 °F 55% 30.21 in 10.0 mi North 31.1 mph 47.2 mph N/A   Clear
12:52 PM 44.1 °F 32.2 °F 25.0 °F 47% 30.22 in 10.0 mi North 43.7 mph 52.9 mph N/A   Clear
1:52 PM 45.0 °F 34.4 °F 23.0 °F 42% 30.23 in 10.0 mi North 35.7 mph 49.5 mph N/A   Clear
2:52 PM 46.0 °F 35.8 °F 18.0 °F 33% 30.24 in 10.0 mi North 36.8 mph 50.6 mph N/A   Clear
3:52 PM 45.0 °F 34.1 °F 16.0 °F 31% 30.26 in 10.0 mi North 38.0 mph 47.2 mph N/A   Clear
4:52 PM 42.1 °F 32.1 °F 16.0 °F 35% 30.31 in 10.0 mi NNW 25.3 mph 38.0 mph N/A   Clear
5:52 PM 39.0 °F 28.5 °F 19.0 °F 45% 30.35 in 10.0 mi NNW 23.0 mph 33.4 mph N/A   Clear
6:52 PM 37.0 °F 27.7 °F 19.0 °F 48% 30.37 in 10.0 mi NNW 16.1 mph 24.2 mph N/A   Clear
7:52 PM 35.1 °F 24.8 °F 19.9 °F 54% 30.40 in 10.0 mi NNW 17.3 mph 23.0 mph N/A   Clear
8:52 PM 34.0 °F 23.4 °F 17.1 °F 50% 30.42 in 10.0 mi NNW 17.3 mph - N/A   Clear
9:52 PM 33.1 °F 23.0 °F 16.0 °F 50% 30.42 in 10.0 mi NNW 15.0 mph - N/A   Clear
10:52 PM 32.0 °F 21.6 °F 16.0 °F 52% 30.42 in 10.0 mi NNW 15.0 mph - N/A   Clear
11:52 PM 30.0 °F 19.5 °F 16.0 °F 56% 30.44 in 10.0 mi NNW 13.8 mph - N/A   Clear